Погода в Тамбове

Погода в Тамбове : погода сейчас, прогноз погоды и архив. Всё, что Вы хотите узнать о погоде в Тамбове!

Поиск расширенной информации на нашем сайте:

Другие новости

Новости СМИ2

Главная страница сайта

Новости сайта

02.10.2013

Напоминаем, что на нашем новом сайте вы можете получить высокодетализированные прогнозы погоды по пунктам России, СНГ и мира (включающие важные для авиации метеовеличины, такие как направление и скорость ветра, видимость, явления погоды, количество и форма облачности, нижняя и верхняя граница облачности), а также ознакомиться с разнообразными материалами по авиационной метеорологии и подборкой полезных ссылок на эту тему.

Сайт Метеоцентр.Азия посвящён разработке технологий оптимизации авиаметеорологического обслуживания, включая проектирование и перспективное создание нескольких автоматизированных авиаметеорологических систем:
- система выпуска высокодетальных прогностических карт явлений погоды для нижнего воздушного пространства по России и ближнему зарубежью;
- система верификации прогнозов TAF (выпускаемых синоптиками официальных АМСГ РФ и ближнего зарубежья) и AUTOTAF (выпускаемых сайтом Метеоцентр.Азия) - выявление ошибок, онлайн-сопоставление с фактической погодой METAR, автоматическое внесение коррективов в прогнозы при резком отклонении фактической погоды от прогноза, подсчёт оправдываемости прогнозов по элементам и в целом;
- система обработки, анализа и отображения авиаметеорологической информации для применения провайдерами метеорологической информации.

Рекомендуем: Помогите купить гироскутер недорого.

Погода в Тамбове - сегодня

Время (UTC), дата Ветер
(°,м/с) 
Видим.   Явления Облачность Т
(°С)
Тd
(°С)
f(%) Тe
(°С)
Pmin
(гПа)
dP
(гПа)
Po
(мм)
O2
(г/м3)
Тmin Tmax R s Состояние
почвы
03 25.06.17 тихо ()   10 км    3/0 верхняя 
[Ci sp]
+11.4 +9.2 86 +12  1009.5  0.4  745  287  +7.4         
06 25.06.17 280 (З) 10 км    6/0 средняя, верхняя 
[Ac trans|Ci sp]
+19.3 +8.4 49 +20  1009.3  0.2  745  279           
09 25.06.17 260 (З) 10 км    8/5 1000 м верхняя 
[Cu hum|Ci sp]
+21 +7.7 42 +21  1009.2  745  278           
12 25.06.17 220 (ЮЗ) 10 км    8/8 1000 м 
[Cu hum]
+22.7 +7.1 37 +23  1009.1  745  276           
15 25.06.17 230 (ЮЗ) 5{10}  10 км    9/9 1000 м кучево-дожд. 
[Cb calv]
+20.7 +10.2 51 +22  1009.2  745  277    +23.2       
18 25.06.17 210 (ЮЗ) 10 км    8/5 1000 м средняя 
[Sc diur, vesp|Ac trans]
+18.8 +12.7 68 +24  1010.1  0.8  746  279           
21 25.06.17 210 (ЮЗ) 10 км    3/0 средняя 
[Ac trans]
+16.1 +12.8 81 +22  1010.7  0.5  746  281           
00 26.06.17 тихо ()   10 км    3/0 верхняя 
[Ci sp]
+14.3 +12.6 90 +19  1010.8  746  283           
03 26.06.17 190 (Ю) 10 км    8/5 1000 м верхняя 
[Sc|Ci sp]
+15.8 +14.2 90 +23  1010.8  0.1  746  281  +13.1         
06 26.06.17 220 (ЮЗ) 10 км    4/0 средняя 
[Ac trans]
+22.6 +15.4 64 +32  1010.7  0.2  746  275           
09 26.06.17 240 (ЮЗ) 6{10}  10 км    9/6 1000 м средняя 
[Cu hum|Ac trans]
+24 +13.8 53 +31  1010.6  746  274           
12 26.06.17 200 (Ю) 6{11}  10 км    8/6 1000 м верхняя 
[Cu hum|Ci sp]
+26.3 +15.9 53 +37  1009.6  -0.9  746  271           
15 26.06.17 200 (Ю) 6{11}  10 км    8/5 1000 м верхняя 
[Cu hum|Ci sp]
+26.2 +14.3 48 +34  1008.1  -1.5  745  271    +26.7       
18 26.06.17 180 (Ю) 5{11}  10 км    9/4 1000 м средняя, верхняя 
[Sc|Ac trans|Ci sp]
+23.8 +16.3 63 +35  1007.5  -0.6  744  272           
21 26.06.17 290 (З) 7-12{15}  10 км    9/6 1200 м кучево-дожд., средняя 
[Cb calv|Ac trans]
+19.4 +15.9 80 +29  1008.7  0.9  745  277           
00 27.06.17 180 (Ю) 3{12}  10 км  {ливн. осадки}  10/10 1000 м кучево-дожд. 
[Cb calv]
+18.5 +17 91 +32  1007.3  -1.4  744  277           
03 27.06.17 190 (Ю) 10 км    9/6 1000 м средняя 
[Sc|Ac trans]
+19.1 +17.3 89 +33  1007.2  744  276  +17.8    0.7     
06 27.06.17 260 (З) 10 км    10/10 480 м кучево-дожд. 
[Cb calv]
+21.4 +18.5 84 +37  1007.7  0.6  744  274           
09 27.06.17 250 (З) 10 км    9/5 1000 м средняя 
[Cu Sc|Ac trans]
+24.1 +17.4 66 +37  1008.5  0.8  745  272           
12 27.06.17 300 (СЗ) 4{10}  10 км    9/9 1000 м кучево-дожд. 
[Cb calv]
+20.6 +17.4 82 +34  1008.7  745  275           
15 27.06.17 310 (СЗ) 5{11}  10 км  {ливн. осадки}  8/5 1000 м кучево-дожд., средняя 
[Cb calv|Ac trans]
+21.6 +15.4 68 +31  1008.8  0.2  745  275    +25.9  0.4     
18 27.06.17 тихо ()   10 км    8/5 1000 м кучево-дожд., средняя 
[Cb calv|Ac trans]
+20 +15.7 76 +30  1010  1.1  746  277           
21 27.06.17 310 (СЗ) 10 км    5/3 1000 м средняя 
[Sc|Ac trans]
+16.8 +15.4 91 +28  1010.7  0.5  746  280           
00 28.06.17 тихо ()   10 км    3/3 1000 м 
[Sc]
+13.4 +12.8 96 +19  1012.1  1.3  747  284           
03 28.06.17 тихо ()   10 км    3/3 1000 м 
[Sc]
+15.3 +14.6 96 +23  1013  748  282  +12.2         
Время (UTC), дата Ветер
(°,м/с) 
Видим.   Явления Облачность Т
(°С)
Тd
(°С)
f(%) Тe
(°С)
Pmin
(гПа)
dP
(гПа)
Po
(мм)
O2
(г/м3)
Тmin Tmax R s Состояние
почвы

Для получения пояснительной информации подведите курсор к названию столбца.

ПОГОДА в Тамбове - архив

Всё, что Вы хотите узнать о погоде в Тамбове - удобно и подробно!

Выберите нужную дату (начиная с 1 января 2015* года) и нажмите кнопку "Найти".
Будут отображены архивные сводки погоды по пункту Тамбов, начиная с указанной даты.


Отображать данные в формате CSV (для использования в таблицах Excel)


Внимание! Наш архив погоды предназначен исключительно для личного некоммерческого использования в познавательных целях. Если Вам необходимы официальные справки о состоянии погоды (для производственных, юридических, коммерческих и т.п. целей), обращайтесь в органы Росгидромета.

*Примечание: данная дата относится к архиву по метеостанциям СССР (Россия, СНГ, Балтия).
Архив по метеостанциям Зарубежной Европы и Азии (кроме Китая) хранится 10 дней, по другим регионам земного шара (Китай, Африка, Америка, Австралия, Океания) - 1 день.

Тамбов - район местоположения метеостанции


Название, широта, долгота, высота метеостанции:
Тамбов 52.8°ш. 41.3°д. 128 м над ур. моря [Российская Федерация]

Дополнительная информация

В oтличие oт бoльшинства пoгoдных сайтoв мы публикуем пoдрoбную метеoинфoрмацию в детальнoм прoфессиoнальнoм фoрмате.

Характеристики температуры и влажнoсти вoздуха измеряются на высoте 2 м в тени вдали oт зданий и деревьев.
Скoрoсть ветра измеряется на высoте 10 м (на урoвне рoста челoвека скoрoсть ветра ниже в 1.5-2 раза). Если метеoстанция нахoдится в гoрoде или в лесу, тo скoрoсть ветра занижена на 2-4 м/с пo сравнению с oткрытым местoм. Скoрoсть ветра над акватoриями крупных рек и oзёр, а также на вершинах хoлмoв на 2-5 м/с выше, чем в oбычных услoвиях.
Атмoсфернoе давление в разных тoчках местнoсти мoжет значительнo oтличаться oт давления на метеoстанции, в зависимoсти oт услoвий рельефа (при пoдъёме на 10 м давление пoнижается примернo на 1 мм рт.ст.).